Time,TemperatureF,DewpointF,PressureIn,WindDirection,WindDirectionDegrees,WindSpeedMPH,WindSpeedGustMPH,Humidity,HourlyPrecipIn,Conditions,Clouds,dailyrainin,SolarRadiationWatts/m^2,SoftwareType,DateUTC
2013-01-09 00:02:00,28.0,26.0,-100.00,SW,232,6.0,16.0,92,0.00,,,0.02,0.000000,,2013-01-09 06:02:00,
2013-01-09 00:22:00,28.0,26.0,-100.00,SW,231,5.0,11.0,93,0.00,,,0.02,0.000000,,2013-01-09 06:22:00,
2013-01-09 00:32:00,28.0,26.0,-100.00,SW,231,5.0,11.0,93,0.00,,,0.02,0.000000,,2013-01-09 06:32:00,
2013-01-09 00:42:00,28.0,26.0,-100.00,SW,231,5.0,11.0,93,0.00,,,0.02,0.000000,,2013-01-09 06:42:00,
2013-01-09 00:52:00,28.0,26.0,-100.00,SW,231,5.0,11.0,93,0.00,,,0.02,0.000000,,2013-01-09 06:52:00,
2013-01-09 01:02:00,28.0,26.0,-100.00,SW,231,5.0,11.0,93,0.00,,,0.02,0.000000,,2013-01-09 07:02:00,
2013-01-09 01:32:00,29.0,27.0,-100.00,SW,236,6.0,13.0,91,0.00,,,0.02,0.000000,,2013-01-09 07:32:00,
2013-01-09 01:42:00,29.0,27.0,-100.00,SW,236,6.0,13.0,91,0.00,,,0.02,0.000000,,2013-01-09 07:42:00,
2013-01-09 01:52:00,29.0,27.0,-100.00,SW,236,6.0,13.0,91,0.00,,,0.02,0.000000,,2013-01-09 07:52:00,
2013-01-09 02:02:00,29.0,27.0,-100.00,SW,236,6.0,13.0,91,0.00,,,0.02,0.000000,,2013-01-09 08:02:00,
2013-01-09 02:22:00,29.0,26.0,-100.00,WSW,246,7.0,20.0,88,0.00,,,0.02,0.000000,,2013-01-09 08:22:00,
2013-01-09 02:32:00,29.0,26.0,-100.00,WSW,246,7.0,20.0,88,0.00,,,0.02,0.000000,,2013-01-09 08:32:00,
2013-01-09 02:43:00,29.0,26.0,-100.00,WSW,246,7.0,20.0,88,0.00,,,0.02,0.000000,,2013-01-09 08:43:00,
2013-01-09 02:53:00,29.0,26.0,-100.00,WSW,246,7.0,20.0,88,0.00,,,0.02,0.000000,,2013-01-09 08:53:00,
2013-01-09 03:02:00,29.0,26.0,-100.00,WSW,246,7.0,20.0,88,0.00,,,0.02,0.000000,,2013-01-09 09:02:00,
2013-01-09 03:22:00,28.0,25.0,-100.00,WSW,238,7.0,13.0,88,0.00,,,0.02,0.000000,,2013-01-09 09:22:00,
2013-01-09 03:32:00,28.0,25.0,-100.00,WSW,238,7.0,13.0,88,0.00,,,0.02,0.000000,,2013-01-09 09:32:00,
2013-01-09 03:42:00,28.0,25.0,-100.00,WSW,238,7.0,13.0,88,0.00,,,0.02,0.000000,,2013-01-09 09:42:00,
2013-01-09 03:53:00,28.0,25.0,-100.00,WSW,238,7.0,13.0,88,0.00,,,0.02,0.000000,,2013-01-09 09:53:00,
2013-01-09 04:02:00,28.0,25.0,-100.00,WSW,238,7.0,13.0,88,0.00,,,0.02,0.000000,,2013-01-09 10:02:00,
2013-01-09 04:32:00,28.0,24.0,-100.00,WSW,241,6.0,12.0,85,0.00,,,0.02,0.000000,,2013-01-09 10:32:00,
2013-01-09 04:42:00,28.0,24.0,-100.00,WSW,241,6.0,12.0,85,0.00,,,0.02,0.000000,,2013-01-09 10:42:00,
2013-01-09 04:52:00,28.0,24.0,-100.00,WSW,241,6.0,12.0,85,0.00,,,0.02,0.000000,,2013-01-09 10:52:00,
2013-01-09 05:02:00,28.0,24.0,-100.00,WSW,241,6.0,12.0,85,0.00,,,0.02,0.000000,,2013-01-09 11:02:00,
2013-01-09 05:33:00,27.0,24.0,-100.00,WSW,248,10.0,17.0,90,0.00,,,0.02,0.000000,,2013-01-09 11:33:00,
2013-01-09 05:42:00,27.0,24.0,-100.00,WSW,248,10.0,17.0,90,0.00,,,0.02,0.000000,,2013-01-09 11:42:00,
2013-01-09 05:53:00,27.0,24.0,-100.00,WSW,248,10.0,17.0,90,0.00,,,0.02,0.000000,,2013-01-09 11:53:00,
2013-01-09 06:03:00,27.0,24.0,-100.00,WSW,248,10.0,17.0,90,0.00,,,0.02,0.000000,,2013-01-09 12:03:00,
2013-01-09 06:23:00,25.0,23.0,-100.00,West,261,8.0,20.0,92,0.00,,,0.02,0.000000,,2013-01-09 12:23:00,
2013-01-09 06:33:00,25.0,23.0,-100.00,West,261,8.0,20.0,92,0.00,,,0.02,0.000000,,2013-01-09 12:33:00,
2013-01-09 06:43:00,25.0,23.0,-100.00,West,261,8.0,20.0,92,0.00,,,0.02,0.000000,,2013-01-09 12:43:00,
2013-01-09 06:53:00,25.0,23.0,-100.00,West,261,8.0,20.0,92,0.00,,,0.02,0.000000,,2013-01-09 12:53:00,
2013-01-09 07:02:00,25.0,23.0,-100.00,West,261,8.0,20.0,92,0.00,,,0.02,0.000000,,2013-01-09 13:02:00,
2013-01-09 07:23:00,24.0,22.0,-100.00,West,264,9.0,24.0,92,0.00,,,0.02,0.000000,,2013-01-09 13:23:00,
2013-01-09 07:33:00,24.0,22.0,-100.00,West,264,9.0,24.0,92,0.00,,,0.02,0.000000,,2013-01-09 13:33:00,
2013-01-09 07:43:00,24.0,22.0,-100.00,West,264,9.0,24.0,92,0.00,,,0.02,0.000000,,2013-01-09 13:43:00,
2013-01-09 07:53:00,24.0,22.0,-100.00,West,264,9.0,24.0,92,0.00,,,0.02,0.000000,,2013-01-09 13:53:00,
2013-01-09 08:03:00,24.0,22.0,-100.00,West,264,9.0,24.0,92,0.00,,,0.02,0.000000,,2013-01-09 14:03:00,
2013-01-09 08:23:00,24.0,19.0,-100.00,West,279,11.0,30.0,82,0.00,,,0.02,0.000000,,2013-01-09 14:23:00,
2013-01-09 08:33:00,24.0,19.0,-100.00,West,279,11.0,30.0,82,0.00,,,0.02,0.000000,,2013-01-09 14:33:00,
2013-01-09 08:43:00,24.0,19.0,-100.00,West,279,11.0,30.0,82,0.00,,,0.02,0.000000,,2013-01-09 14:43:00,
2013-01-09 08:53:00,24.0,19.0,-100.00,West,279,11.0,30.0,82,0.00,,,0.02,0.000000,,2013-01-09 14:53:00,
2013-01-09 09:03:00,24.0,19.0,-100.00,West,279,11.0,30.0,82,0.00,,,0.02,0.000000,,2013-01-09 15:03:00,
2013-01-09 09:23:00,24.0,20.0,-100.00,West,269,11.0,28.0,84,0.00,,,0.02,7.000000,,2013-01-09 15:23:00,
2013-01-09 09:33:00,24.0,20.0,-100.00,West,269,11.0,28.0,84,0.00,,,0.02,7.000000,,2013-01-09 15:33:00,
2013-01-09 09:43:00,24.0,20.0,-100.00,West,269,11.0,28.0,84,0.00,,,0.02,7.000000,,2013-01-09 15:43:00,
2013-01-09 09:53:00,24.0,20.0,-100.00,West,269,11.0,28.0,84,0.00,,,0.02,7.000000,,2013-01-09 15:53:00,
2013-01-09 10:03:00,24.0,20.0,-100.00,West,269,11.0,28.0,84,0.00,,,0.02,7.000000,,2013-01-09 16:03:00,
2013-01-09 10:23:00,25.0,21.0,-100.00,West,274,11.0,24.0,83,0.00,,,0.02,23.000000,,2013-01-09 16:23:00,
2013-01-09 10:34:00,25.0,21.0,-100.00,West,274,11.0,24.0,83,0.00,,,0.02,23.000000,,2013-01-09 16:34:00,
2013-01-09 10:43:00,25.0,21.0,-100.00,West,274,11.0,24.0,83,0.00,,,0.02,23.000000,,2013-01-09 16:43:00,
2013-01-09 10:53:00,25.0,21.0,-100.00,West,274,11.0,24.0,83,0.00,,,0.02,23.000000,,2013-01-09 16:53:00,
2013-01-09 11:02:00,25.0,21.0,-100.00,West,274,11.0,24.0,83,0.00,,,0.02,23.000000,,2013-01-09 17:02:00,
2013-01-09 11:23:00,26.0,21.0,-100.00,West,273,9.0,21.0,81,0.00,,,0.02,52.000000,,2013-01-09 17:23:00,
2013-01-09 11:33:00,26.0,21.0,-100.00,West,273,9.0,21.0,81,0.00,,,0.02,52.000000,,2013-01-09 17:33:00,
2013-01-09 11:43:00,26.0,21.0,-100.00,West,273,9.0,21.0,81,0.00,,,0.02,52.000000,,2013-01-09 17:43:00,
2013-01-09 11:53:00,26.0,21.0,-100.00,West,273,9.0,21.0,81,0.00,,,0.02,52.000000,,2013-01-09 17:53:00,
2013-01-09 12:03:00,26.0,21.0,-100.00,West,273,9.0,21.0,81,0.00,,,0.02,52.000000,,2013-01-09 18:03:00,
2013-01-09 12:24:00,26.0,20.0,-100.00,West,273,9.0,22.0,78,0.00,,,0.01,78.000000,,2013-01-09 18:24:00,
2013-01-09 12:33:00,26.0,20.0,-100.00,West,273,9.0,22.0,78,0.00,,,0.01,78.000000,,2013-01-09 18:33:00,
2013-01-09 12:43:00,26.0,20.0,-100.00,West,273,9.0,22.0,78,0.00,,,0.01,78.000000,,2013-01-09 18:43:00,
2013-01-09 12:53:00,26.0,20.0,-100.00,West,273,9.0,22.0,78,0.00,,,0.01,78.000000,,2013-01-09 18:53:00,
2013-01-09 13:03:00,26.0,20.0,-100.00,West,273,9.0,22.0,78,0.00,,,0.01,78.000000,,2013-01-09 19:03:00,
2013-01-09 14:33:00,25.0,19.0,-100.00,West,271,7.0,19.0,77,-99.99,,,0.01,80.000000,,2013-01-09 20:33:00,
2013-01-09 14:43:00,25.0,19.0,-100.00,West,271,7.0,19.0,77,-99.99,,,0.01,80.000000,,2013-01-09 20:43:00,
2013-01-09 14:53:00,25.0,19.0,-100.00,West,271,7.0,19.0,77,-99.99,,,0.01,80.000000,,2013-01-09 20:53:00,
2013-01-09 15:03:00,25.0,19.0,-100.00,West,271,7.0,19.0,77,-99.99,,,0.01,80.000000,,2013-01-09 21:03:00,
2013-01-09 15:33:00,25.0,19.0,-100.00,West,265,5.0,15.0,78,0.00,,,0.00,49.000000,,2013-01-09 21:33:00,
2013-01-09 15:43:00,25.0,19.0,-100.00,West,265,5.0,15.0,78,0.00,,,0.00,49.000000,,2013-01-09 21:43:00,
2013-01-09 15:53:00,25.0,19.0,-100.00,West,265,5.0,15.0,78,0.00,,,0.00,49.000000,,2013-01-09 21:53:00,
2013-01-09 16:03:00,25.0,19.0,-100.00,West,265,5.0,15.0,78,0.00,,,0.00,49.000000,,2013-01-09 22:03:00,
2013-01-09 16:23:00,24.0,18.0,-100.00,West,264,5.0,12.0,77,0.00,,,0.00,22.000000,,2013-01-09 22:23:00,
2013-01-09 16:33:00,24.0,18.0,-100.00,West,264,5.0,12.0,77,0.00,,,0.00,22.000000,,2013-01-09 22:33:00,
2013-01-09 16:43:00,24.0,18.0,-100.00,West,264,5.0,12.0,77,0.00,,,0.00,22.000000,,2013-01-09 22:43:00,
2013-01-09 16:52:00,24.0,18.0,-100.00,West,264,5.0,12.0,77,0.00,,,0.00,22.000000,,2013-01-09 22:52:00,
2013-01-09 17:02:00,24.0,18.0,-100.00,West,264,5.0,12.0,77,0.00,,,0.00,22.000000,,2013-01-09 23:02:00,
2013-01-09 17:33:00,24.0,18.0,-100.00,West,262,6.0,14.0,78,0.00,,,0.00,2.000000,,2013-01-09 23:33:00,
2013-01-09 17:43:00,24.0,18.0,-100.00,West,262,6.0,14.0,78,0.00,,,0.00,2.000000,,2013-01-09 23:43:00,
2013-01-09 17:53:00,24.0,18.0,-100.00,West,262,6.0,14.0,78,0.00,,,0.00,2.000000,,2013-01-09 23:53:00,
2013-01-09 18:03:00,24.0,18.0,-100.00,West,262,6.0,14.0,78,0.00,,,0.00,2.000000,,2013-01-10 00:03:00,
2013-01-09 18:33:00,23.0,17.0,-100.00,WSW,252,4.0,15.0,76,0.00,,,0.00,0.000000,,2013-01-10 00:33:00,
2013-01-09 18:43:00,23.0,17.0,-100.00,WSW,252,4.0,15.0,76,0.00,,,0.00,0.000000,,2013-01-10 00:43:00,
2013-01-09 18:53:00,23.0,17.0,-100.00,WSW,252,4.0,15.0,76,0.00,,,0.00,0.000000,,2013-01-10 00:53:00,
2013-01-09 19:02:00,23.0,17.0,-100.00,WSW,252,4.0,15.0,76,0.00,,,0.00,0.000000,,2013-01-10 01:02:00,
2013-01-09 19:33:00,23.0,17.0,-100.00,WSW,248,5.0,11.0,76,0.00,,,0.00,0.000000,,2013-01-10 01:33:00,
2013-01-09 19:43:00,23.0,17.0,-100.00,WSW,248,5.0,11.0,76,0.00,,,0.00,0.000000,,2013-01-10 01:43:00,
2013-01-09 19:53:00,23.0,17.0,-100.00,WSW,248,5.0,11.0,76,0.00,,,0.00,0.000000,,2013-01-10 01:53:00,
2013-01-09 20:03:00,23.0,17.0,-100.00,WSW,248,5.0,11.0,76,0.00,,,0.00,0.000000,,2013-01-10 02:03:00,
2013-01-09 20:22:00,20.0,14.0,-100.00,SW,227,2.0,9.0,78,0.00,,,0.00,0.000000,,2013-01-10 02:22:00,
2013-01-09 20:33:00,20.0,14.0,-100.00,SW,227,2.0,9.0,78,0.00,,,0.00,0.000000,,2013-01-10 02:33:00,
2013-01-09 20:43:00,20.0,14.0,-100.00,SW,227,2.0,9.0,78,0.00,,,0.00,0.000000,,2013-01-10 02:43:00,
2013-01-09 20:52:00,20.0,14.0,-100.00,SW,227,2.0,9.0,78,0.00,,,0.00,0.000000,,2013-01-10 02:52:00,
2013-01-09 21:02:00,20.0,14.0,-100.00,SW,227,2.0,9.0,78,0.00,,,0.00,0.000000,,2013-01-10 03:02:00,
2013-01-09 21:22:00,20.0,16.0,-100.00,SE,145,3.0,5.0,84,0.00,,,0.00,0.000000,,2013-01-10 03:22:00,
2013-01-09 21:33:00,20.0,16.0,-100.00,SE,145,3.0,5.0,84,0.00,,,0.00,0.000000,,2013-01-10 03:33:00,
2013-01-09 21:43:00,20.0,16.0,-100.00,SE,145,3.0,5.0,84,0.00,,,0.00,0.000000,,2013-01-10 03:43:00,
2013-01-09 21:53:00,20.0,16.0,-100.00,SE,145,3.0,5.0,84,0.00,,,0.00,0.000000,,2013-01-10 03:53:00,
2013-01-09 22:02:00,20.0,16.0,-100.00,SE,145,3.0,5.0,84,0.00,,,0.00,0.000000,,2013-01-10 04:02:00,
2013-01-09 22:32:00,21.0,16.0,-100.00,SE,130,4.0,7.0,81,0.00,,,0.00,0.000000,,2013-01-10 04:32:00,
2013-01-09 22:43:00,21.0,16.0,-100.00,SE,130,4.0,7.0,81,0.00,,,0.00,0.000000,,2013-01-10 04:43:00,
2013-01-09 22:52:00,21.0,16.0,-100.00,SE,130,4.0,7.0,81,0.00,,,0.00,0.000000,,2013-01-10 04:52:00,
2013-01-09 23:03:00,21.0,16.0,-100.00,SE,130,4.0,7.0,81,0.00,,,0.00,0.000000,,2013-01-10 05:03:00,
2013-01-09 23:33:00,21.0,16.0,-100.00,ESE,105,4.0,9.0,80,0.00,,,0.00,0.000000,,2013-01-10 05:33:00,
2013-01-09 23:43:00,21.0,16.0,-100.00,ESE,105,4.0,9.0,80,0.00,,,0.00,0.000000,,2013-01-10 05:43:00,
2013-01-09 23:53:00,21.0,16.0,-100.00,ESE,105,4.0,9.0,80,0.00,,,0.00,0.000000,,2013-01-10 05:53:00,